Larnaca, Cyprus

8:16 PM EEST on April 19, 2018 (GMT +0300)
Larnaca International

Weather History for LCLK - January, 2018

Change the Weather History Date:

Sunday, January 14, 2018

  Actual Average Record
Temperature  
Mean Temperature 54 °F -  
Max Temperature 63 °F 61 °F 68 °F (2016)
Min Temperature 46 °F 44 °F 35 °F (2008)
Degree Days  
Heating Degree Days 10    
Growing Degree Days 4 (Base 50)    
Moisture  
Dew Point 48 °F    
Average Humidity 79    
Maximum Humidity 100    
Minimum Humidity 42    
Precipitation  
Precipitation 0.01 in 0.08 in - ()
Sea Level Pressure  
Sea Level Pressure 29.93 in    
Wind  
Wind Speed 6 mph ()    
Max Wind Speed 22 mph    
Max Gust Speed -    
Visibility 6.9 miles    
Events Rain , Thunderstorm    
Averages and records for this station are not official NWS values.
T = Trace of Precipitation, MM = Missing Value Source: Averaged Metar Reports

Daily Weather History Graph

Daily Weather History Graph

Search for Another Location

Airport or City:

Astronomy

Jan. 14, 2018 Rise Set
Actual Time 6:53 AM EET 4:56 PM EET
Civil Twilight 6:25 AM EET 5:23 PM EET
Nautical Twilight 5:54 AM EET 5:54 PM EET
Astronomical Twilight 5:23 AM EET 6:25 PM EET
Moon 4:31 AM EET (1/14) 2:58 PM EET (1/14)
Length of Visible Light 10h 58m
Length of Day
10h 03m
Waning Crescent, 6% of the Moon is Illuminated
Jan 14
Waning Crescent
Jan 17
New
Jan 25
First Quarter
Jan 31
Full
Feb 7
Last Quarter

Hourly Weather History & Observations

Time (EET) Temp. Dew Point Humidity Pressure Visibility Wind Dir Wind Speed Gust Speed Precip Events Conditions
12:00 AM 53.6 °F 51.8 °F 94% 29.89 in 6.2 mi West 3.5 mph - N/A Rain , Thunderstorm Light Thunderstorms and Rain
12:30 AM 53.6 °F 51.8 °F 94% 29.86 in 6.2 mi Variable 2.3 mph - N/A   Scattered Clouds
1:00 AM 51.8 °F 51.8 °F 100% 29.89 in 6.2 mi NW 5.8 mph - N/A   Partly Cloudy
1:30 AM 55.4 °F 50.0 °F 82% 29.92 in 6.2 mi WNW 11.5 mph - N/A   Scattered Clouds
2:00 AM 53 °F 50 °F 86% 29.89 in 6 mi NW 11.5 mph - - Thunderstorm Light Thunderstorm
2:00 AM 53.6 °F 50.0 °F 88% 29.89 in 6.2 mi NW 11.5 mph - N/A   Partly Cloudy
2:30 AM 53.6 °F 48.2 °F 82% 29.89 in 6.2 mi NNW 8.1 mph - N/A Thunderstorm Thunderstorm
3:00 AM 51.8 °F 48.2 °F 88% 29.86 in 6.2 mi NW 5.8 mph - N/A   Partly Cloudy
3:30 AM 50.0 °F 46.4 °F 87% 29.86 in 6.2 mi West 4.6 mph - N/A   Partly Cloudy
4:00 AM 50.0 °F 46.4 °F 87% 29.89 in 6.2 mi WSW 1.2 mph - N/A   Partly Cloudy
4:30 AM 48.2 °F 44.6 °F 87% 29.86 in 6.2 mi Variable 2.3 mph - N/A   Partly Cloudy
5:00 AM 50 °F 46 °F 80% 29.89 in 9 mi WNW 2.3 mph - -   Scattered Clouds
5:00 AM 50.0 °F 46.4 °F 87% 29.86 in 6.2 mi Variable 2.3 mph - N/A   Partly Cloudy
5:30 AM 48.2 °F 44.6 °F 87% 29.89 in 6.2 mi NNW 4.6 mph - N/A   Partly Cloudy
6:00 AM 48.2 °F 46.4 °F 93% 29.89 in 6.2 mi North 3.5 mph - N/A   Partly Cloudy
6:30 AM 48.2 °F 44.6 °F 87% 29.89 in 6.2 mi North 3.5 mph - N/A   Partly Cloudy
7:00 AM 48.2 °F 46.4 °F 93% 29.92 in 6.2 mi NW 4.6 mph - N/A   Partly Cloudy
7:30 AM 53.6 °F 46.4 °F 77% 29.92 in 6.2 mi SW 10.4 mph - N/A   Mostly Cloudy
8:00 AM 53 °F 46 °F 69% 29.92 in 9 mi SW 1.2 mph - -   Mostly Cloudy
8:00 AM 53.6 °F 46.4 °F 77% 29.92 in 6.2 mi Calm Calm - N/A   Mostly Cloudy
8:30 AM 53.6 °F 46.4 °F 77% 29.89 in 6.2 mi ENE 1.2 mph - N/A   Mostly Cloudy
9:00 AM 55.4 °F 48.2 °F 77% 29.92 in 6.2 mi NNW 5.8 mph - N/A   Partly Cloudy
9:30 AM 57.2 °F 48.2 °F 72% 29.92 in 6.2 mi West 4.6 mph - N/A   Partly Cloudy
10:00 AM 59.0 °F 48.2 °F 67% 29.92 in 6.2 mi SW 2.3 mph - N/A   Partly Cloudy
10:30 AM 62.6 °F 46.4 °F 55% 29.92 in 6.2 mi SW 10.4 mph - N/A   Partly Cloudy
11:00 AM 61 °F 48 °F 52% 29.93 in 16 mi SW 16.1 mph - -   Partly Cloudy
11:30 AM 60.8 °F 48.2 °F 63% 29.92 in 6.2 mi SW 21.9 mph - N/A   Scattered Clouds
12:00 PM 62.6 °F 50.0 °F 63% 29.89 in 6.2 mi SW 15.0 mph - N/A   Partly Cloudy
12:30 PM 62.6 °F 44.6 °F 52% 29.89 in 6.2 mi WSW 12.7 mph - N/A   Partly Cloudy
1:00 PM 62.6 °F 46.4 °F 55% 29.89 in 6.2 mi SW 12.7 mph - N/A   Partly Cloudy
1:30 PM 62.6 °F 46.4 °F 55% 29.89 in 6.2 mi SSW 11.5 mph - N/A   Partly Cloudy
2:00 PM 63 °F 46 °F 42% 29.90 in 14 mi SSW 13.8 mph - -   Partly Cloudy
2:00 PM 62.6 °F 46.4 °F 55% 29.89 in 6.2 mi SSW 13.8 mph - N/A   Partly Cloudy
2:30 PM 62.6 °F 46.4 °F 55% 29.89 in 6.2 mi SSW 16.1 mph - N/A   Partly Cloudy
3:00 PM 60.8 °F 48.2 °F 63% 29.92 in 6.2 mi SW 10.4 mph - N/A   Partly Cloudy
3:30 PM 60.8 °F 48.2 °F 63% 29.92 in 6.2 mi SW 9.2 mph - N/A   Scattered Clouds
4:00 PM 60.8 °F 48.2 °F 63% 29.92 in 6.2 mi WSW 10.4 mph - N/A   Scattered Clouds
4:30 PM 55.4 °F 51.8 °F 88% 29.92 in 6.2 mi West 8.1 mph - N/A Rain Light Rain Showers
5:00 PM 56 °F 53 °F 87% 29.96 in 9 mi NNW 6.9 mph - - Rain Light Rain Showers
5:00 PM 55.4 °F 53.6 °F 94% 29.95 in 6.2 mi NNW 6.9 mph - N/A   Mostly Cloudy
5:30 PM 55.4 °F 53.6 °F 94% 29.95 in 6.2 mi West 3.5 mph - N/A   Mostly Cloudy
6:00 PM 55.4 °F 53.6 °F 94% 29.95 in 6.2 mi Variable 2.3 mph - N/A   Scattered Clouds
6:30 PM 53.6 °F 53.6 °F 100% 29.98 in 6.2 mi West 2.3 mph - N/A   Scattered Clouds
7:00 PM 53.6 °F 53.6 °F 100% 29.98 in 6.2 mi West 3.5 mph - N/A   Partly Cloudy
7:30 PM 53.6 °F 51.8 °F 94% 30.01 in 6.2 mi WNW 3.5 mph - N/A   Partly Cloudy
8:00 PM 51 °F 49 °F 92% 30.01 in 9 mi WNW 4.6 mph - -   Partly Cloudy
8:00 PM 50.0 °F 50.0 °F 100% 30.01 in 6.2 mi WNW 4.6 mph - N/A   Partly Cloudy
8:30 PM 51.8 °F 50.0 °F 94% 30.01 in - NW 3.5 mph - N/A   Clear
9:00 PM 51.8 °F 48.2 °F 88% 30.01 in - West 5.8 mph - N/A   Clear
9:30 PM 50.0 °F 46.4 °F 87% 30.01 in - West 5.8 mph - N/A   Clear
10:00 PM 51.8 °F 46.4 °F 82% 30.04 in - WNW 9.2 mph - N/A   Clear
10:30 PM 53.6 °F 44.6 °F 72% 30.04 in - West 10.4 mph - N/A   Clear
11:00 PM 54 °F 44 °F 60% 30.06 in 9 mi West 6.9 mph - -   Clear
11:00 PM 53.6 °F 44.6 °F 72% 30.04 in - West 6.9 mph - N/A   Clear
11:30 PM 53.6 °F 42.8 °F 67% 30.06 in - West 3.5 mph - N/A   Clear